Weather Roundup
Issued by NWS

Home | Current Version | Previous Version | Text Only | Print | Product List | Glossary On
Versions: 1 2 3 4 5 6 7 8 9 10 11 12 13 14 15 16 17 18 19 20 21 22 23 24 25 26 27 28 29 30 31 32 33 34 35 36 37 38 39 40 41 42 43 44 45 46 47 48 49 50
284
NZUS93 KARX 060810
HRRWXR

CURRENT HOURLY OBSERVATIONS ACROSS
MUCH OF THE UPPER MISSISSIPPI VALLEY
NATIONAL WEATHER SERVICE LA CROSSE WI
200 AM CST TUE DEC 06 2016


...SOUTHEAST MINNESOTA...


CITY           SKY/WX    TMP DP  RH WIND       PRES   REMARKS
ROCHESTER      LGT SNOW  33  32  96 S17       29.74R FOG     WCI  22
ROCHESTER/MAYO CLOUDY    32  33 100 S12       29.74S WCI  23
WINONA         LGT SNOW  34  32  93 S5        29.77S WCI  30
AUSTIN         LGT SNOW  34  30  86 SW7       29.76R WCI  28
ALBERT LEA     CLOUDY    36  32  87 W9G17     29.76R WCI  29
DODGE CENTER   LGT SNOW  32  32 100 SW10      29.73R WCI  24
PRESTON        LGT SNOW  31  30  95 S15       29.75S WCI  20
OWATONNA       CLOUDY    34  27  75 W18       29.76R WCI  23
FARIBAULT      CLOUDY    34  27  75 SW13G18   29.75R WCI  25
$$

...ELSEWHERE IN MINNESOTA...


CITY           SKY/WX    TMP DP  RH WIND       PRES   REMARKS
MINNEAPOLIS    CLOUDY    33  25  72 W16G25    29.71R WCI  23
INTNL FALLS    CLOUDY    33  31  92 E14       29.45F FOG     WCI  23
DULUTH         CLOUDY    35  33  92 S16G24    29.56S WCI  25
RED WING       LGT RAIN  36  34  93 S9        29.71F WCI  29
REDWOOD FALLS  CLOUDY    26  17  68 W16G26    29.74R WCI  14
MANKATO        MIX PCPN  31  26  82 W12       29.77R WCI  22
WORTHINGTON    CLOUDY    22  17  81 W23G31    29.77R WCI   6
FAIRMONT       CLOUDY    30  24  78 W18G25    29.77R WCI  18
$$

...SOUTHWEST WISCONSIN...


CITY           SKY/WX    TMP DP  RH WIND       PRES   REMARKS
LA CROSSE      CLOUDY    36  31  82 S14       29.79S WCI  27
PRAIRIE DU CHI CLOUDY    32  28  85 SE7G17    29.84S WCI  26
BOSCOBEL       CLOUDY    33  29  85 VRB3      29.86R
LONE ROCK      CLOUDY    32  28  85 S6        29.87R WCI  26
PLATTEVILLE    CLOUDY    31  31 100 S8        29.85S WCI  23
FORT MC COY    CLOUDY    33  31  92 S9        29.81S WCI  25
CAMP DOUGLAS   CLOUDY    32  29  89 SE8       29.81R WCI  25
MAUSTON-NEW LI CLOUDY    32  30  92 S12       29.81S WCI  23
VIROQUA        CLOUDY    31  31  99 S12       29.80R WCI  22
WIS DELLS      CLOUDY    31  28  91 S6        29.84R WCI  25
$$

...ELSEWHERE IN WISCONSIN...


CITY           SKY/WX    TMP DP  RH WIND       PRES   REMARKS
MILWAUKEE      CLOUDY    37  33  85 S5        29.89F WCI  33
MADISON        CLOUDY    30  29  96 MISG      29.86S FOG
GREEN BAY      CLOUDY    38  36  92 S12       29.87F WCI  30
EAU CLAIRE     LGT SNOW  33  31  92 S14       29.73R FOG     WCI  23
BLACK RVR FLS  PTSUNNY   33  33  98 S5        29.78F WCI  29
MEDFORD        MOCLDY    30  28  93 SE10      29.74S FOG     WCI  21
WAUSAU         PTCLDY    30  29  96 SE8       29.78F WCI  22
WIS RAPIDS     CLOUDY    31  30  96 S7        29.82R WCI  24
MARSHFIELD     CLOUDY    31  28  89 SE13      29.76F FOG     WCI  21
RICE LAKE      LGT SNOW  33  32  96 SE10      29.70S WCI  25
$$

...NORTHEAST IOWA...


CITY           SKY/WX    TMP DP  RH WIND       PRES   REMARKS
WATERLOO       CLOUDY    33  32  96 S12       29.80R FOG     WCI  24
DUBUQUE        LGT SNOW  30  30 100 S10       29.83F VSB 3/4 WCI  21
DECORAH        CLOUDY    32  30  93 S12       29.79R FOG     WCI  23
MASON CITY     LGT SNOW  32  30  92 W15G24    29.80R FOG     WCI  22
CHARLES CITY   CLOUDY    34  34 100 S12       29.78S FOG     WCI  25
OELWEIN        CLOUDY    32  32 100 S15       29.81R FOG     WCI  22
$$

...ELSEWHERE IN IOWA...


CITY           SKY/WX    TMP DP  RH WIND       PRES   REMARKS
DES MOINES     LGT RAIN  37  33  85 N15       29.82R WCI  28
IOWA CITY      CLOUDY    35  32  88 E5        29.84F WCI  31
FORT DODGE     CLOUDY    32  25  74 W10G16    29.83R WCI  24
MARSHALLTOWN   CLOUDY    36  35  96 S8        29.79R FOG     WCI  30
CEDAR RAPIDS   CLOUDY    33  33 100 SE7       29.81F WCI  27
$$

...NORTHERN ILLINOIS...


CITY           SKY/WX    TMP DP  RH WIND       PRES   REMARKS
CHICAGO-OHARE  MOCLDY    34  32  92 E5        29.87F FOG     WCI  30
CHICAGO-MIDWAY CLOUDY    33  29  85 E3        29.88F FOG
MOLINE         CLOUDY    35  32  88 E8        29.83S FOG     WCI  29
ROCKFORD       FOG       33  32  96 SE8       29.87F VSB 3/4 WCI  26
PEORIA         CLOUDY    33  32  96 NE6       29.85R FOG     WCI  28
$$

NOTE: "FAIR" INDICATES FEW OR NO CLOUDS BELOW 12,000 FEET WITH NO
SIGNIFICANT WEATHER AND/OR OBSTRUCTIONS TO VISIBILITY. WIND
SPEEDS ARE IN MILES-PER-HOUR.




USA.gov is the U.S. government's official web portal to all federal, state and local government web resources and services.